CAPE
404 769 852 891 784 517 173 0 197 627 681 560 550 316 185 131 49 40 32 26 20 43 6 9 0 1 0 0 0 3 2 0 4 6 21 3 5 12 17 16 37 35 19
0 93 324 667 735 704 471 422 620 540 458 359 216 168 167 110 40 37 43 18 15 34 66 47 22 2 0 0 0 0 0 1 4 4 5 7 5 14 7 9 25 28 22
0 0 12 9 130 691 602 533 505 400 424 335 318 184 134 127 134 70 26 17 3 0 28 84 36 30 13 0 0 0 0 1 1 1 4 9 7 9 5 4 31 9 4
0 0 0 3 17 31 474 654 596 445 311 244 260 258 181 210 174 190 156 68 1 0 0 33 36 72 29 5 0 0 0 0 1 2 5 2 0 9 8 5 21 6 11
0 0 0 0 15 52 95 257 333 496 472 339 245 248 263 289 278 189 250 143 15 0 0 1 10 30 18 39 17 2 0 7 0 2 2 1 2 2 11 11 35 14 10
0 0 0 0 0 0 35 173 114 255 378 330 314 221 209 282 271 170 198 146 63 11 2 0 2 1 1 27 25 34 25 21 22 9 2 3 29 4 24 10 34 19 9
0 0 0 0 0 14 15 46 169 280 263 379 331 204 142 115 118 137 177 154 71 12 5 2 1 2 4 22 35 30 17 48 54 48 50 47 27 27 38 5 32 26 25
0 0 0 0 0 0 2 62 40 119 281 418 348 232 84 49 0 13 142 136 73 20 0 0 11 15 4 13 2 0 5 28 46 47 65 44 33 21 44 26 33 30 29
0 0 0 0 0 0 19 49 144 115 160 365 430 308 71 81 0 1 1 41 16 1 0 0 0 3 10 0 14 0 5 16 26 62 51 45 39 38 43 44 35 33 36
0 0 0 0 0 0 0 44 95 124 137 167 323 426 172 63 31 0 2 2 0 0 0 0 0 0 0 5 5 0 2 16 24 29 56 47 44 36 59 47 33 45 38
0 0 0 0 0 0 13 58 71 120 120 124 181 239 332 201 3 0 0 2 3 2 1 1 1 1 0 0 6 7 13 8 25 48 51 39 48 44 58 57 62 19 19
0 0 0 0 0 9 0 12 49 103 166 126 190 268 275 221 32 1 5 3 1 2 2 0 0 2 0 1 7 25 13 25 22 24 25 24 20 8 34 42 36 21 24
0 0 0 0 1 0 0 0 0 82 148 186 377 383 393 348 199 0 3 3 2 3 2 3 0 1 0 2 4 12 4 3 3 2 4 6 15 18 21 17 19 18 15
0 0 0 0 2 1 3 2 0 3 186 176 304 445 550 414 259 0 1 0 3 1 2 2 1 1 2 3 5 4 11 10 7 8 6 8 6 10 10 10 5 7 7
0 0 0 0 0 5 7 5 4 0 42 210 307 435 611 504 271 0 0 0 0 1 2 0 0 1 2 2 3 2 4 9 7 7 9 8 5 4 5 7 4 5 4
0 0 0 0 3 4 2 3 6 8 24 93 319 476 661 374 131 1 1 0 0 0 0 0 0 1 2 2 1 0 3 2 5 3 3 3 3 3 3 4 2 1 2
0 0 0 0 2 0 0 0 2 26 24 81 194 493 553 320 43 2 1 0 0 0 0 3 1 0 2 0 0 0 0 0 0 2 2 1 2 2 2 2 2 2 1
0 0 1 3 0 0 0 2 2 2 31 124 298 456 374 97 3 2 2 1 2 0 0 1 2 2 0 0 0 0 0 0 0 4 4 3 1 1 1 1 1 8 2
0 0 1 2 0 0 1 2 3 1 119 399 414 379 227 21 3 2 3 4 4 3 2 3 4 1 0 0 0 0 0 0 0 0 2 2 1 3 2 4 10 2 2
0 0 0 0 4 2 2 3 1 13 342 418 332 212 41 5 1 2 2 2 3 4 2 3 2 1 0 0 0 0 0 0 0 0 0 0 0 0 13 18 18 10 15
0 0 0 0 3 2 2 2 3 141 240 180 87 21 2 3 4 4 2 5 3 4 3 3 2 0 0 0 0 0 0 0 0 0 0 0 0 0 10 19 21 22 40
0 0 0 1 1 3 2 6 99 23 2 2 2 2 4 5 6 8 6 2 0 0 2 0 0 0 0 0 0 0 0 0 0 0 0 0 0 0 0 3 12 11 16
0 0 0 1 3 3 2 0 40 2 2 2 3 2 5 5 3 3 9 6 3 0 0 0 0 0 0 0 0 0 0 0 0 0 0 0 0 0 0 2 2 2 3
0 1 2 3 3 1 1 23 2 2 2 3 2 2 3 2 1 0 0 0 0 0 0 0 0 0 0 0 0 0 0 0 0 0 0 0 0 0 0 0 5 5 1
0 2 2 2 1 1 3 3 1 1 2 1 1 1 0 0 0 0 0 0 0 0 0 0 0 0 0 0 0 0 0 0 0 0 0 0 0 0 0 0 0 0 0
2 0 1 2 4 4 4 3 0 1 2 2 0 0 0 0 0 0 0 0 0 0 0 0 0 0 0 0 0 0 0 0 0 0 0 0 0 0 0 0 0 0 0
CIN
-24 -11 -22 -20 -14 -24 -58 0 -3 -14 -28 -21 -13 -19 -29 -29 -23 -31 -48 -48 -42 -36 -17 -9 -0 -4 0 0 0 0 0 -0 0 -0 -0 -0 -1 -0 -1 -0 -0 0 -0
0 -57 -32 -13 -19 -17 -15 -18 -13 -17 -8 -15 -14 -6 -23 -21 -21 -34 -48 -58 -53 -40 -14 -10 -8 -0 0 0 0 0 0 0 -0 -0 -0 -0 -0 -0 -1 0 -0 -0 -0
-0 0 -76 -94 -60 -6 -12 -23 -26 -19 -17 -20 -13 -8 -12 -24 -23 -46 -55 -79 -81 -4 -23 -0 -9 -5 -5 0 0 0 0 0 -0 0 0 -0 -0 -0 -0 -0 -0 -0 -1
0 0 0 -31 -71 -54 -10 -6 -25 -19 -22 -21 -21 -11 -16 -25 -23 -33 -33 -54 -81 0 0 -15 -5 -3 -1 -31 0 0 0 0 -0 0 -0 0 0 0 -0 -0 -0 -0 -0
0 0 0 0 -82 -53 -31 -13 -24 -17 -27 -22 -29 -30 -17 -22 -27 -31 -18 -41 -73 0 0 -23 -34 -12 -10 -10 -15 -2 0 -4 0 -0 -0 -0 -0 -0 -0 0 -0 -0 -1
0 0 0 0 0 0 -92 -10 -31 -44 -22 -29 -21 -22 -25 -23 -33 -29 -17 -30 -37 -43 -44 -4 -48 -22 -33 -6 -15 -0 -3 -4 -0 -0 0 0 -0 0 -0 0 -0 -0 0
0 0 0 0 0 -95 -104 -70 -4 -1 -23 -34 -12 -14 -32 -35 -30 -30 -18 -26 -26 -38 -32 -48 -36 -29 -9 -35 -18 -24 -4 -1 -1 -0 -0 0 -3 -1 0 -0 0 -0 -1
0 0 0 0 0 0 -59 -48 -71 -15 -1 -16 -7 -1 -18 -60 -0 -61 -14 -10 -7 -60 -24 0 -14 -12 -5 -6 -23 0 -54 -13 -0 -0 0 0 -2 -6 -0 -0 0 -0 -0
0 0 0 0 0 0 -37 -65 -7 -15 -2 -2 -5 -5 -7 -2 0 0 0 -19 -9 -5 0 -18 0 -6 -2 -0 -9 0 -54 -40 -12 -0 -0 -0 -0 -0 0 -0 -0 -0 -1
0 0 0 0 0 0 -1 -25 -25 -12 -5 -3 -0 -2 -12 -17 -24 0 0 0 0 0 0 0 0 0 0 -23 -12 0 -37 -34 -21 -7 -0 0 -0 -2 -0 0 -0 -1 -0
0 0 0 0 0 0 -26 -9 -10 -11 -15 -7 -7 -2 -0 -10 0 0 -64 0 0 0 0 0 0 0 0 0 -7 -12 -9 -25 -9 -0 -0 -0 -0 -0 -0 0 -0 -0 -0
0 0 0 0 0 -75 0 -34 -43 -8 -4 -11 -11 -8 -1 -1 -27 -32 -29 0 0 0 0 0 0 0 0 0 -7 -0 -4 -2 -3 -6 -2 -0 -12 -5 -3 -0 -1 -0 -2
0 0 0 0 -1 0 0 0 0 -11 -20 -9 -1 -1 -0 -2 -10 0 0 0 0 0 0 0 0 0 0 -0 -1 -2 0 0 0 0 0 0 -23 0 -0 0 -0 -1 -2
0 0 0 0 -2 -3 -0 -0 -1 -18 -1 -6 -20 -0 -0 -11 -22 0 0 0 0 0 0 0 0 0 0 0 0 0 0 0 0 0 0 0 0 -0 -0 0 0 0 0
0 0 0 0 0 -4 -2 -0 -0 0 -93 -20 -48 -28 -1 -8 -24 0 0 0 0 0 0 0 0 0 0 0 0 0 0 0 0 0 0 0 0 -0 0 -0 -0 -0 -0
0 0 0 0 -2 -7 -2 -0 0 -143 -102 -63 -45 -40 -0 -16 -70 0 0 0 0 0 0 0 0 0 0 0 0 0 -0 -0 -0 -0 -0 -0 -0 -0 -0 -0 -0 -0 -0
0 0 0 0 -2 0 0 0 -0 -122 -157 -137 -69 -13 -7 -24 -134 0 0 0 0 0 0 0 0 0 0 0 0 0 0 0 -0 -0 -0 -0 -0 -0 -0 -0 -0 -0 -0
0 0 -2 -3 -0 0 -0 0 0 -1 -123 -112 -56 -5 -3 -110 -0 0 0 0 0 0 0 0 0 0 0 0 0 0 0 0 -0 -0 -0 -0 -0 -0 -0 -0 -0 -0 -0
0 0 -0 -3 0 0 0 0 0 -0 -84 -24 -21 -4 -25 -119 0 0 0 0 0 0 0 0 0 0 0 0 0 0 0 0 0 -0 -0 -1 -1 -0 -0 -0 -0 -0 -0
0 0 -0 -3 -1 -0 0 0 0 -67 -1 -0 -2 -32 -92 -94 0 0 0 0 0 0 0 0 0 0 0 0 0 0 0 0 0 0 -0 0 0 -0 -0 -0 -0 -1 -1
-0 0 0 -0 -0 0 0 -0 -26 -4 -5 -7 -40 -115 0 0 0 0 0 0 0 0 0 0 0 0 0 0 0 0 0 0 0 0 0 0 0 0 -2 -0 -1 -0 -0
0 -1 0 -0 0 0 0 -2 -2 -10 0 0 0 0 0 0 0 0 0 0 0 0 0 0 0 0 0 0 0 0 0 0 0 0 0 0 0 0 0 -4 -0 -1 -0
0 0 -0 0 0 0 0 -1 -6 0 0 0 0 0 0 0 0 0 0 0 -0 0 0 0 0 0 0 0 0 0 0 0 0 0 0 0 0 0 0 -4 -1 -1 -0
0 -0 0 0 0 0 0 -2 0 0 0 0 0 0 0 0 0 0 0 0 0 0 0 0 0 0 0 0 0 0 0 0 0 0 0 0 0 0 0 0 -0 -0 -0
0 0 0 0 0 0 0 0 0 0 0 0 0 0 0 0 0 0 0 0 0 0 0 0 0 0 0 0 0 0 0 0 0 0 0 0 0 0 0 0 0 0 -0
0 0 0 0 0 0 0 0 0 0 0 0 0 0 0 0 0 0 0 0 0 0 0 0 0 0 0 0 0 0 0 0 0 0 0 0 0 0 0 0 0 0 0
Wind_Speed
32 32 33 34 29 25 23 19 19 8 9 10 12 12 10 10 12 10 8 5 7 8 10 10 12 14 16 19 20 22 24 25 26 28 29 31 34 36 37 38 38 39 40
30 31 32 33 35 32 28 23 23 15 14 14 15 16 11 9 13 11 8 9 7 8 9 9 10 12 14 17 18 21 23 24 25 27 28 30 32 35 36 37 38 39 40
31 33 33 35 34 34 34 29 26 24 21 20 18 16 14 11 11 10 9 10 9 10 9 7 9 10 13 14 16 19 21 22 24 26 27 29 31 33 35 36 37 39 40
35 36 35 35 35 37 35 33 31 29 27 25 24 20 15 12 14 14 11 11 10 11 9 7 8 8 9 12 14 17 19 20 22 24 26 28 30 31 33 34 36 38 40
38 38 38 37 35 36 36 36 35 34 33 29 25 24 18 16 17 17 13 13 10 10 10 7 7 4 8 10 13 14 18 19 20 21 24 26 28 29 31 33 34 36 38
38 39 39 39 38 39 39 37 38 36 35 34 30 28 27 25 22 19 15 12 9 9 10 9 9 9 8 9 11 13 16 18 20 21 22 25 26 27 29 31 32 34 36
40 39 40 40 39 39 39 40 39 39 38 33 34 32 30 28 24 19 16 13 10 10 10 10 10 10 12 12 13 13 15 18 22 21 22 23 24 25 27 28 30 31 33
44 44 44 43 42 41 40 40 40 40 38 34 33 29 30 25 22 21 19 15 14 11 11 11 10 10 9 10 12 13 17 20 21 23 23 22 22 23 24 26 28 29 30
43 44 45 44 43 43 43 41 40 40 40 35 32 31 31 31 25 22 22 17 13 13 14 9 8 9 9 12 13 15 18 20 20 21 21 22 22 24 23 25 26 26 26
40 41 41 42 43 43 43 42 40 39 39 39 35 34 33 29 29 25 24 21 14 13 10 10 8 10 12 14 15 16 17 19 20 21 21 21 21 22 23 24 24 23 25
40 41 41 41 42 41 42 42 42 40 37 37 36 34 34 31 26 24 26 21 18 15 15 12 9 7 9 13 15 15 15 17 18 19 20 21 22 22 22 23 23 23 26
42 41 40 40 40 38 39 40 42 42 39 36 36 34 36 32 32 21 22 18 16 17 13 9 11 10 9 10 12 11 13 14 16 18 19 20 22 23 23 23 24 25 26
43 41 41 41 39 41 43 43 43 43 42 39 37 38 37 35 30 27 16 13 14 14 12 13 12 9 8 10 11 12 13 14 15 17 17 19 21 23 23 24 25 26 27
43 43 43 42 40 41 40 41 43 44 43 43 40 39 38 36 28 27 21 15 15 17 13 9 9 7 6 9 11 13 15 15 15 16 16 18 20 23 24 25 26 27 28
41 42 44 43 42 41 40 40 41 44 43 43 45 42 37 36 28 26 23 14 14 20 13 9 8 5 7 9 11 13 14 15 16 17 18 19 22 23 26 26 27 28 29
40 43 43 42 41 40 39 40 41 41 42 42 42 43 40 31 25 23 18 17 16 11 14 7 6 5 6 8 12 13 14 15 17 17 18 21 23 25 25 27 28 29 30
41 43 43 42 39 40 41 40 41 40 43 43 42 43 33 21 21 20 15 13 10 9 8 4 4 3 5 8 10 12 13 14 16 18 19 21 23 24 26 27 28 29 30
41 40 39 39 38 36 37 38 40 40 42 43 40 35 21 14 15 16 13 11 9 9 8 6 0 2 5 8 10 11 12 15 16 18 20 21 23 25 27 28 28 29 30
37 35 31 32 34 34 35 36 37 40 40 42 36 17 13 14 13 12 10 7 8 8 6 8 5 4 6 8 8 10 12 14 17 19 20 22 25 26 27 28 29 29 31
31 32 29 31 30 32 33 34 34 38 38 39 12 13 13 13 11 10 9 10 14 11 9 7 8 7 5 6 8 9 12 15 17 19 22 23 25 27 28 29 27 30 31
31 28 29 26 28 29 28 29 30 32 17 11 12 12 14 11 10 13 13 11 12 11 9 9 6 4 4 6 8 9 12 14 18 19 21 24 25 26 27 28 27 29 31
29 28 29 28 27 27 27 24 22 9 7 11 11 12 12 8 10 17 12 9 11 14 9 8 6 4 6 7 8 9 10 15 19 20 21 23 24 24 26 26 27 26 29
27 27 29 29 28 30 28 26 27 8 13 11 12 14 14 14 15 16 17 17 18 14 11 7 8 8 9 9 10 12 14 16 18 17 20 21 22 24 23 24 25 25 26
22 22 21 20 17 25 33 31 13 16 15 16 17 16 20 20 24 24 23 19 14 13 13 13 14 14 14 14 14 14 15 16 18 18 19 20 20 21 23 23 25 26 26
15 14 8 14 9 14 31 23 16 14 16 16 14 20 25 26 25 25 21 21 21 19 20 21 21 20 19 19 17 16 17 16 18 19 19 20 21 22 23 24 25 26 26
8 4 6 8 13 15 23 28 25 25 29 30 23 22 24 22 23 24 26 26 24 22 22 22 22 22 22 23 23 18 17 17 18 20 20 18 18 19 23 24 26 27 27
Wind_Direction
304 304 301 299 300 300 300 303 213 273 279 282 289 285 284 294 305 308 307 323 333 339 349 359 8 4 4 3 3 5 3 359 1 360 356 359 0 1 1 1 359 357 355
308 302 300 300 297 298 298 293 295 299 289 292 297 295 281 275 301 302 305 307 313 319 333 351 356 359 0 3 5 2 1 2 1 1 356 1 5 5 3 1 360 359 357
308 305 302 296 297 298 296 296 294 290 292 293 295 293 291 282 292 294 293 300 301 303 316 338 347 354 354 359 3 1 358 357 1 2 2 4 6 6 5 5 3 1 358
306 303 301 298 298 293 294 293 292 292 292 291 294 290 291 286 287 289 287 291 296 300 303 318 336 349 351 351 360 357 358 359 3 2 3 3 3 5 5 3 2 2 0
304 302 299 297 297 295 292 288 288 288 289 289 287 288 283 281 285 289 281 285 287 292 295 307 328 16 354 350 354 360 349 356 5 5 3 3 4 3 3 1 2 4 4
300 298 298 296 295 292 290 289 285 284 283 284 286 282 282 285 287 287 279 281 281 287 291 299 313 332 340 342 352 356 352 355 352 355 358 358 359 360 0 2 4 6 5
300 299 296 294 294 290 288 286 287 284 281 281 283 284 284 285 282 282 278 279 284 290 291 298 308 319 319 329 342 349 355 360 352 353 352 354 356 356 1 2 2 2 5
298 296 293 290 289 288 286 284 283 281 280 279 276 278 283 278 277 283 282 275 274 282 287 300 305 312 316 325 340 351 346 344 348 349 351 355 359 0 359 359 1 1 5
302 297 293 289 287 286 283 282 281 279 276 276 271 270 272 276 277 282 281 275 265 272 281 295 300 302 318 317 326 341 343 341 346 351 353 354 354 357 357 355 359 1 8
305 302 296 292 288 284 282 280 280 277 276 273 272 266 267 275 274 274 278 277 273 275 280 290 287 298 304 315 319 336 341 342 346 348 350 349 354 356 356 356 2 11 14
305 304 299 293 289 286 282 279 278 275 274 273 270 269 265 266 281 267 265 263 272 279 287 279 281 306 311 318 327 336 348 350 352 357 356 360 3 5 8 19 25 18 8
305 304 302 295 291 290 285 280 276 271 271 271 271 268 262 264 261 279 262 258 267 282 284 287 291 299 322 336 341 356 360 10 11 20 13 11 14 18 18 16 13 6 1
302 301 302 296 291 289 284 279 274 270 267 267 267 267 263 261 264 255 256 267 271 272 281 292 292 310 339 349 359 21 37 24 20 22 12 12 11 11 8 3 358 356 353
300 298 297 294 290 289 283 277 271 267 266 262 265 265 263 261 257 257 261 250 258 270 275 274 298 334 4 23 39 35 28 24 29 24 12 8 5 2 357 353 348 348 346
292 292 294 289 286 285 282 276 270 265 264 265 260 260 262 259 255 252 247 234 238 250 265 288 285 338 27 35 36 32 28 27 27 25 6 358 357 352 348 345 344 341 340
289 294 293 289 285 284 280 273 266 264 260 258 257 254 254 256 250 243 241 246 254 223 253 265 296 332 27 41 38 28 28 31 22 7 1 358 353 348 345 342 341 338 339
288 292 289 284 285 277 267 261 258 258 248 251 251 246 256 249 242 238 233 239 231 224 183 245 288 25 46 40 32 31 27 14 6 6 3 358 353 349 345 341 339 340 341
289 285 279 279 277 265 258 253 249 248 247 243 249 253 252 232 223 223 233 225 218 194 176 165 181 23 47 35 45 35 9 4 6 5 359 357 353 349 346 344 343 343 344
283 279 271 270 268 260 255 247 242 236 230 228 239 244 223 210 210 221 219 209 187 173 137 137 120 79 56 52 33 12 12 6 2 359 357 356 355 352 350 350 348 349 347
279 277 267 264 263 256 251 238 246 229 219 212 222 214 202 202 194 178 154 146 144 126 124 119 103 93 63 24 13 11 2 360 356 354 356 357 355 352 353 351 356 352 348
279 270 267 264 262 260 252 248 246 215 173 212 213 202 203 199 185 152 145 138 126 115 114 114 100 74 37 357 4 3 1 360 358 357 355 355 357 354 354 356 357 356 357
280 273 269 272 262 252 246 248 209 117 145 137 148 174 160 154 138 119 114 109 113 113 113 107 80 32 355 30 22 13 10 354 347 0 0 358 359 355 355 357 357 356 355
279 277 274 268 254 239 228 221 202 147 121 143 148 116 123 114 116 100 97 93 88 87 86 69 57 43 35 23 19 12 7 1 358 6 5 359 5 5 3 4 6 5 3
279 276 268 260 244 198 176 153 129 120 113 103 104 113 111 108 102 99 93 85 78 68 62 55 49 39 35 33 33 28 20 16 14 15 15 8 18 17 22 19 16 12 9
280 285 240 144 47 88 97 109 101 112 98 111 114 106 103 101 97 95 92 86 77 69 61 57 53 49 44 42 47 39 26 23 19 17 29 30 33 32 30 23 15 9 1
261 218 113 94 83 88 90 91 104 107 102 97 109 105 99 97 92 87 85 85 77 68 65 55 46 39 33 31 29 38 47 44 42 31 27 38 45 39 31 34 23 14 8